Location: Wanzleben
(52.0609°N, 11.4408°E)
Time: 03:47:25
(UTC+00:00)

Cosmos 1092 Rocket - Pass Details

Date: 18 September 2020
Orbit: 954 x 995 km, 82.9° (Epoch: 22 October)

Event Time Altitude Azimuth Distance (km) Brightness Sun altitude
Rises 19:47:42 0° 348° (NNW) 3,646 7.7 -22.0°
Reaches altitude 10° 19:50:13 10° 346° (NNW) 2,697 7.0 -22.3°
Maximum altitude 19:56:18 67° 265° (W) 1,038 4.2 -23.1°
Enters shadow 20:00:16 23° 189° (S) 1,923 5.3 -23.6°
